Location: Newport
(44.6370°N, 124.0520°W)
Time: 18:24:10
(UTC-08:00)

Vanguard 3 - All Passes

Search period start: 10 December 2017 00:00
Search period end: 20 December 2017 00:00
Orbit: 509 x 3263 km, 33.3° (Epoch: 09 December)

Date Brightness Start Highest point End Pass type
(mag) Time Alt. Az. Time Alt. Az. Time Alt. Az.
10 Dec - 14:23:25 10° SSW 14:25:34 15° SSE 14:27:51 10° SE daylight
10 Dec - 16:33:14 10° SW 16:36:16 19° S 16:40:09 10° SE daylight
10 Dec - 18:45:06 10° SW 18:47:38 13° SSW 18:50:37 10° S visible
11 Dec - 13:11:47 10° S 13:12:30 10° SSE 13:13:12 10° SSE daylight
11 Dec - 15:20:32 10° SW 15:23:09 18° S 15:26:08 10° SE daylight
11 Dec - 17:31:30 10° SW 17:34:07 15° S 17:37:19 10° SSE visible
12 Dec - 14:07:51 10° SSW 14:10:05 15° S 14:12:22 10° SE daylight
12 Dec - 16:18:22 10° SW 16:20:50 16° S 16:23:44 10° SSE daylight
13 Dec - 12:55:10 10° SSW 12:57:00 13° S 12:58:44 10° SE daylight
13 Dec - 15:05:21 10° SW 15:07:42 16° S 15:10:15 10° SE daylight
13 Dec - 17:17:51 10° SSW 17:18:38 10° SSW 17:19:28 10° S visible
14 Dec - 11:42:55 10° S 11:43:48 10° SSE 11:44:39 10° SSE daylight
14 Dec - 13:52:13 10° SW 13:54:38 16° S 13:56:58 10° SE daylight
14 Dec - 16:03:40 10° SW 16:05:22 12° S 16:07:12 10° SSE daylight
15 Dec - 12:38:53 10° SSW 12:41:32 15° S 12:43:52 10° SE daylight
15 Dec - 14:50:07 10° SW 14:52:14 15° S 14:54:25 10° SSE daylight
16 Dec - 11:25:26 10° SSW 11:28:19 14° S 11:30:44 10° SE daylight
16 Dec - 13:36:32 10° SW 13:39:11 17° S 13:41:38 10° SE daylight
17 Dec - 10:12:09 10° S 10:14:54 13° SSE 10:17:14 10° SE daylight
17 Dec - 12:22:41 10° SW 12:26:05 18° S 12:28:53 10° SE daylight
17 Dec - 14:34:53 10° SW 14:36:45 13° SSW 14:38:37 10° SSE daylight
18 Dec - 09:00:17 10° SSE 09:01:14 10° SSE 09:02:07 10° SSE daylight
18 Dec - 11:08:36 10° SW 11:12:50 19° S 11:16:05 10° SE daylight
18 Dec - 13:20:44 10° SW 13:23:44 18° S 13:26:19 10° SE daylight
19 Dec - 09:54:28 10° SSW 09:59:22 17° SSE 10:03:02 10° SE daylight
19 Dec - 12:06:26 10° SW 12:10:37 21° S 12:13:50 10° SE daylight
19 Dec - 14:19:35 10° SW 14:21:14 12° SSW 14:22:49 10° S daylight
